Back to catalog

STARLINK-37570

AliveCommunicationsVLEO
NORAD 69519·PAYLOAD·🇺🇸 United States

Launched Jun 12, 2026 from Cape Canaveral Space Force Station

Loading…

Next Passes (next 24 hours)

TLE

FreshSource: CelesTrak SupGP

Epoch: Sep 14, 2026, 15:29 UTC

1 69519C 26133M   26257.64562500 -.00028108  00000+0 -83069-3 0  2571
2 69519  53.1558 257.0327 0001276  85.9337   1.4898 15.34395596    17

Track STARLINK-37570 in real time with AllMySat

Download on the App Store